To NAV CANADA Home Page Login to a new session Search on AWWS site Feedback and Comments Disclaimer Vers la page française équivalente Tips FAQ What's new on the site To the Forecasts and Observations / NOTAM section To "File a Flight Plan" website Publications and other links Update of the User's profile FIC Telephone Numbers My Weather Data Folder Route Weather Data Regional Weather Data Local Weather Data To the Forecasts and Observations / NOTAM section
Request Generated 04/24/2014 at 18:56:37 UTC . Weather information available at that time is displayed.

METAR/TAF

CHESTERFIELD INLET/NU    

METAR CYCS 241800Z 30012KT 15SM SKC M14/M17 A3042 RMK SLP302=
METAR CYCS 241700Z 29017KT 15SM SKC M15/M19 A3042 RMK SLP303=
METAR CYCS 241600Z 29015KT 15SM FEW100 M16/M19 A3042 RMK AC2 SLP302=

CYCS - No TAF is issued for this station

Your time UTC time
Weather data provided by Environment Canada and NAV CANADA